{"data":{"norad_id":54119,"intl_designator":"2022-138G","name":"ONEWEB-0501","alt_names":[],"object_type":"PAYLOAD","status":"ACTIVE","operator":null,"country":"UK","launch_date":"2022-10-22","launch_site_code":"SRILR","launch_vehicle":null,"mission":null,"orbit_class":"UNKNOWN","rcs_meters":null,"size_class":null,"mass_kg":null,"dimensions":null,"purposes":["comms"],"wikipedia_slug":null,"has_3d_model":false,"image_url":null,"decayed_at":null,"tle_current":{"epoch":"2026-05-25T04:38:55.470048Z","epoch_age_seconds":58628,"freshness":"FRESH","line1":"1 54119U 22138G   26145.19369757  .00000072  00000+0  14793-3 0  9996","line2":"2 54119  87.9159 309.5483 0001635  83.9725 276.1594 13.19725746173776","mean_motion":13.19725746,"eccentricity":0.0001635,"inclination_deg":87.9159,"raan_deg":309.5483,"arg_perigee_deg":83.9725,"mean_anomaly_deg":276.1594,"bstar":0.00014793,"rev_number":17377,"period_min":109.11357942092,"perigee_km":1184.5310031507,"apogee_km":1187.0043999881,"semimajor_km":7563.9047015694,"source":"CELESTRAK","updated_at":"2026-05-25T13:38:22.585457Z"}}}